Weather in Talshyk

Kazakhstan     53°38′17″N   71°52′14″E
temp.,
°C
wind,
m/s
gust,
m/s
humid.,
%
clouds,
%
prec.,
mm/h
press.,
hPa
HPBL,
m
1 december, wed
wed100:00−11ssw22915 0.0 102529
03:00−11s22885 0.0 102416
06:00−10s338447 0.0 102336
09:00−10sw348299 0.0 102352
12:00−5ssw3774100 0.0 1022133
15:00−3s3776100 0.0 1021127
18:00−5s4880100 0.0 102092
21:00−4s497795 0.0 1019145
2 december, thu
thu200:00−5s4975100 0.0 1018119
03:00−2s51467100 0.0 1016256
06:00−2s61569100 0.0 1014279
09:00−1s71670100 0.0 1013298
12:00+1s7156998 0.0 1011346
15:00+2s61370100 0.0 1008340
18:00+2s51175100 0.0 1007252
21:00+2ssw71475100 0.0 1006371
3 december, fri
fri300:00+1ssw5138391 0.0 1005261
03:00−1wsw61387100 0.0 1006288
06:00+1w7129386 0.0 1007435
09:000wnw8128393 0.0 1011593
12:00−3w5118451 0.0 1014392
15:00−2wsw511815 0.0 1014418
18:00−4wsw6128297 0.0 1016316
21:00−4wsw714835 0.0 1018433
4 december, sat
sat400:00−5wsw713869 0.0 1020373
03:00−6wsw613875 0.0 1021348
06:00−6wsw613876 0.0 1024299
09:00−7wsw512895 0.0 1026253
12:00−5w410885 0.0 1028288
15:00−4sw37885 0.0 1029206
18:00−6sw369070 0.0 103078
21:00−6sw359042 0.0 103069
5 december, sun
sun500:00−6sw369043 0.0 102983
03:00−6sw48905 0.0 1028115
06:00−6sw48915 0.0 1027118
09:00−5sw49916 0.0 1026130
12:00−2sw4118875 0.0 1025226
15:00−1sw4108684 0.0 1023252
18:00−2sw4118970 0.0 1023189
21:00−4sw4128894 0.0 1022205